EW3722 Weather Reports


Display with metric or nautical units.
time (UTC)temp
F
wind
direction
speed
MPH
gust
MPH
rain 1hr
in
rain 24hr
in
rain mn
in
humidity
%
barometer
mb
20260507073518 59 0.0 0.0 0.00 0.04 0.02 77 1014.1
20260507071518 59 0.0 0.0 0.00 0.04 0.02 77 1014.3
20260507070537 59 0.0 0.0 0.00 0.04 0.02 78 1013.9
20260507065517 58 0.0 5.0 0.00 0.04 0.02 78 1013.8
20260507064517 59 113 1.0 5.0 0.00 0.04 0.02 79 1013.8
20260507063518 58 0.0 3.0 0.00 0.04 0.02 83 1013.8
20260507061518 57 0.0 3.0 0.00 0.04 0.02 85 1013.8
20260507060517 56 0.0 0.0 0.00 0.04 0.02 86 1013.7
20260507055517 56 113 1.0 6.0 0.00 0.04 0.02 87 1013.7
20260507054538 55 0.0 4.0 0.00 0.04 0.02 87 1013.6
20260507053517 56 0.0 5.0 0.00 0.04 0.02 87 1013.7
20260507052538 55 0.0 4.0 0.00 0.04 0.02 88 1013.7
20260507051537 55 0.0 0.0 0.00 0.04 0.02 88 1013.8
20260507050517 55 0.0 0.0 0.00 0.04 0.02 89 1013.6
20260507044517 55 0.0 10.0 0.00 0.04 0.02 90 1013.5
20260507043537 55 0.0 4.0 0.00 0.04 0.02 90 1013.4
20260507042537 55 113 2.0 11.0 0.00 0.04 0.02 90 1013.3
20260507041517 55 0.0 0.0 0.00 0.04 0.02 90 1013.3
20260507040537 55 113 3.0 16.0 0.00 0.04 0.02 90 1013.0
20260507034517 55 158 1.0 12.0 0.00 0.04 0.02 90 1013.0
20260507033537 55 0.0 7.0 0.00 0.04 0.02 90 1012.9
20260507032518 55 0.0 0.0 0.00 0.04 0.02 90 1012.9
20260507031517 55 0.0 6.0 0.00 0.04 0.02 90 1012.9
20260507030517 55 0.0 0.0 0.01 0.04 0.02 91 1012.9
20260507025537 55 113 2.0 12.0 0.01 0.04 0.02 91 1013.0
20260507024517 55 90 1.0 7.0 0.01 0.04 0.02 91 1013.0
20260507023517 55 0.0 8.0 0.01 0.04 0.02 91 1013.1
20260507021517 55 0.0 0.0 0.02 0.04 0.02 90 1013.1
20260507020517 55 0.0 4.0 0.01 0.03 0.01 90 1012.9
20260507014517 55 68 1.0 19.0 0.01 0.03 0.01 89 1012.6
20260507013517 56 0.0 2.0 0.01 0.03 0.01 89 1012.8
20260507011517 56 0.0 0.0 0.00 0.02 0.00 89 1012.9
20260507010517 56 0.0 0.0 0.00 0.02 0.00 89 1012.9
20260507004517 56 113 1.0 11.0 0.00 0.02 0.00 88 1013.0
20260507003517 56 90 1.0 10.0 0.00 0.02 0.00 88 1013.0
20260507001557 56 0.0 7.0 0.00 0.02 0.00 88 1012.8
20260507000517 56 90 1.0 15.0 0.00 0.02 0.00 88 1012.7
20260506234517 56 0.0 4.0 0.00 0.02 0.00 88 1013.0
20260506233517 56 0.0 6.0 0.00 0.02 0.00 88 1012.9
20260506231537 56 0.0 7.0 0.00 0.02 0.00 88 1012.8
20260506230516 56 113 1.0 11.0 0.00 0.02 0.00 88 1013.1
20260506225516 56 0.0 9.0 0.00 0.02 0.00 88 1013.2
20260506224536 56 113 1.0 10.0 0.00 0.02 0.00 88 1013.2
20260506223516 56 0.0 4.0 0.00 0.02 0.00 87 1013.3
20260506222517 56 0.0 2.0 0.00 0.02 0.00 87 1013.4
20260506221516 56 0.0 0.0 0.00 0.02 0.00 86 1013.4
20260506220517 56 0.0 4.0 0.00 0.02 0.00 85 1013.1
20260506215517 56 0.0 0.0 0.00 0.02 0.02 85 1013.3
20260506214518 56 0.0 6.0 0.00 0.02 0.02 85 1013.2
20260506213517 56 0 2.0 11.0 0.00 0.02 0.02 86 1013.4
20260506212537 56 0.0 2.0 0.00 0.02 0.02 87 1013.3
20260506211518 56 0.0 0.0 0.00 0.02 0.02 88 1013.3
20260506210518 56 0.0 0.0 0.00 0.02 0.02 88 1013.1
20260506204537 56 0.0 0.0 0.01 0.03 0.02 87 1013.1
20260506203538 57 0.0 1.0 0.01 0.03 0.02 87 1013.0
20260506202517 57 0.0 9.0 0.01 0.03 0.02 87 1013.0
20260506201537 57 0.0 4.0 0.01 0.03 0.02 87 1013.0
20260506200517 57 90 2.0 9.0 0.02 0.03 0.02 86 1013.0
20260506195517 57 0.0 1.0 0.02 0.03 0.02 85 1013.0
20260506194517 57 0.0 4.0 0.01 0.02 0.01 84 1012.9
20260506193557 58 0.0 0.0 0.01 0.02 0.01 82 1013.0
20260506192517 59 0.0 2.0 0.01 0.02 0.01 79 1012.8
20260506191517 59 0.0 4.0 0.01 0.02 0.01 75 1012.8
20260506190517 59 0.0 2.0 0.00 0.01 0.00 71 1012.5
20260506184517 59 0.0 2.0 0.00 0.01 0.00 71 1012.3
20260506183517 59 113 1.0 11.0 0.00 0.01 0.00 72 1012.2
20260506182537 59 113 1.0 11.0 0.00 0.01 0.00 74 1012.4
20260506181517 59 113 1.0 11.0 0.00 0.01 0.00 75 1012.4
20260506180517 59 0.0 1.0 0.00 0.01 0.00 76 1012.0
20260506175517 60 0.0 4.0 0.00 0.01 0.00 78 1011.9
20260506174517 60 0.0 1.0 0.00 0.01 0.00 78 1011.9
20260506173517 60 0.0 0.0 0.00 0.01 0.00 78 1011.9
20260506172517 60 203 1.0 9.0 0.00 0.01 0.00 76 1011.8
20260506171517 61 0.0 4.0 0.00 0.01 0.00 75 1011.9
20260506170537 61 0.0 2.0 0.00 0.01 0.00 72 1011.9
20260506165517 62 203 2.0 15.0 0.00 0.01 0.00 70 1011.9
20260506164517 62 0.0 4.0 0.00 0.01 0.00 69 1011.9
20260506163517 63 203 1.0 14.0 0.00 0.01 0.00 67 1011.6
20260506162517 63 135 1.0 9.0 0.00 0.01 0.00 64 1011.6
20260506161517 64 158 1.0 5.0 0.00 0.01 0.00 63 1011.6
20260506160517 64 113 1.0 8.0 0.00 0.01 0.00 62 1011.5
20260506155517 64 0.0 8.0 0.00 0.01 0.00 63 1011.5
20260506154517 64 180 1.0 10.0 0.00 0.01 0.00 64 1011.4
20260506153517 64 0.0 1.0 0.00 0.01 0.00 61 1011.5
20260506152517 64 203 1.0 4.0 0.00 0.01 0.00 59 1011.4
20260506151537 64 135 1.0 13.0 0.00 0.01 0.00 59 1011.4
20260506150516 65 180 1.0 5.0 0.00 0.01 0.00 58 1011.4
20260506145517 65 113 1.0 10.0 0.00 0.01 0.00 57 1011.5
20260506144517 66 225 3.0 15.0 0.00 0.01 0.00 55 1011.6
20260506143516 68 203 1.0 11.0 0.00 0.01 0.00 53 1011.5
20260506141517 70 203 2.0 9.0 0.00 0.01 0.00 50 1011.4
20260506140536 68 203 1.0 6.0 0.00 0.01 0.00 55 1011.6
20260506135537 66 248 1.0 9.0 0.00 0.01 0.00 58 1011.9
20260506134517 66 180 3.0 13.0 0.00 0.01 0.00 56 1011.9
20260506133517 65 0.0 5.0 0.00 0.01 0.00 59 1012.1
20260506132517 66 203 2.0 12.0 0.00 0.01 0.00 58 1012.2
20260506131517 66 203 2.0 8.0 0.00 0.01 0.00 57 1012.2
20260506130556 67 158 2.0 9.0 0.00 0.01 0.00 56 1012.2
20260506125516 68 113 2.0 8.0 0.00 0.01 0.00 54 1012.1
20260506124517 68 180 2.0 9.0 0.00 0.01 0.00 53 1012.1
20260506123516 70 180 2.0 10.0 0.00 0.01 0.00 53 1012.2
20260506122516 70 113 2.0 12.0 0.00 0.01 0.00 51 1012.0
20260506121516 69 180 4.0 11.0 0.00 0.01 0.00 50 1012.0
20260506120516 68 180 2.0 8.0 0.00 0.01 0.00 52 1012.0
20260506115516 68 135 2.0 15.0 0.00 0.01 0.00 53 1011.9
20260506114516 69 203 2.0 12.0 0.00 0.01 0.00 49 1012.0
20260506113516 66 225 2.0 12.0 0.00 0.01 0.00 53 1012.0
20260506112516 65 203 3.0 11.0 0.00 0.01 0.00 55 1012.1
20260506111516 65 203 1.0 7.0 0.00 0.01 0.00 57 1012.1
20260506110518 65 158 2.0 10.0 0.00 0.01 0.00 56 1012.6
20260506105518 64 180 1.0 5.0 0.00 0.01 0.00 59 1012.3
20260506104518 65 180 2.0 12.0 0.00 0.01 0.00 57 1012.4
20260506103518 64 203 1.0 5.0 0.00 0.02 0.00 60 1012.4
20260506102518 64 135 2.0 7.0 0.00 0.02 0.00 60 1012.4
20260506101518 64 180 2.0 13.0 0.00 0.02 0.00 60 1012.4
20260506100518 64 135 1.0 11.0 0.00 0.02 0.00 62 1012.5
20260506095538 64 158 2.0 15.0 0.00 0.02 0.00 61 1012.5
20260506094518 63 158 2.0 12.0 0.00 0.02 0.00 62 1012.5
20260506093518 64 135 2.0 13.0 0.00 0.02 0.00 61 1012.4
20260506092538 64 0.0 4.0 0.00 0.02 0.00 64 1012.6
20260506091518 62 113 1.0 14.0 0.00 0.02 0.00 64 1012.6
20260506090518 62 135 3.0 15.0 0.00 0.02 0.00 62 1012.4
20260506085518 63 135 1.0 8.0 0.00 0.02 0.00 62 1012.3
20260506084518 63 180 2.0 10.0 0.00 0.02 0.00 62 1012.3
20260506083518 62 113 2.0 11.0 0.00 0.02 0.00 62 1012.3
20260506082518 61 135 1.0 15.0 0.00 0.02 0.00 65 1012.3
20260506081518 61 113 2.0 15.0 0.00 0.02 0.00 64 1012.3
20260506080518 60 158 1.0 14.0 0.00 0.02 0.00 66 1012.2